Location: Wayah Bald
(35.1806°N, 83.5603°W)
Time: 23:40:42
(UTC-04:00)

Daily predictions for brighter satellites

Satellite Brightness Start Highest point End
(mag) Time Altitude Azimuth Time Altitude Azimuth Time Altitude Azimuth
Cosmos 1980 3.8 21:12:56 10° NNW 21:18:39 88° WSW 21:24:19 10° SSE
Cosmos 1727 Rocket 4.2 21:13:25 10° S 21:19:34 58° E 21:25:47 10° NNE
Cosmos 2098 Rocket 4.5 21:13:38 10° N 21:21:15 75° E 21:28:28 10° SSE
Aureole 2 Rocket 3.3 21:22:21 10° NNW 21:26:19 59° WSW 21:29:59 10° S
Cosmos 2237 Rocket 2.3 21:22:49 10° NNW 21:28:26 79° WSW 21:34:03 10° SSE
Cosmos 1939 Rocket 3.2 21:25:45 10° SSE 21:29:35 47° ENE 21:33:29 10° N
Cosmos 1340 Rocket 2.8 21:27:07 10° S 21:31:04 63° E 21:35:05 10° NNE
CZ-4B DEB 3.7 21:30:57 10° SE 21:33:34 28° ENE 21:36:11 10° NNE
Cosmos 2221 3.4 21:30:39 10° NNE 21:34:37 32° ENE 21:38:33 10° SE
Envisat 3.0 21:29:34 10° SSE 21:34:38 78° ENE 21:39:43 10° N
Tiangong 1 3.5 21:34:49 10° WNW 21:36:59 20° N 21:39:08 10° NE
Cosmos 2227 Rocket 4.0 21:34:36 10° SW 21:39:47 37° WNW 21:45:00 10° N
Cosmos 1140 Rocket 4.1 21:34:59 10° SSW 21:40:05 60° WNW 21:45:11 10° N
Meteor 1-29 3.1 21:37:04 10° NNE 21:40:25 51° E 21:43:48 10° S
Cosmos 1674 3.4 21:38:43 10° SSE 21:42:08 33° E 21:45:32 10° NNE
Okean 3 Rocket 3.7 21:41:33 10° S 21:45:58 58° E 21:50:21 10° NNE
SAR-Lupe-4 3.9 21:43:39 12° SSE 21:46:51 48° ENE 21:50:19 10° N
In-Cosmos 22 4.3 21:41:24 10° S 21:47:05 85° W 21:52:54 10° N
CZ-3B R/B 3.2 21:45:23 10° SSW 21:47:45 62° SE 21:54:03 10° NE
GPS 2-05 Rocket1 3.6 21:46:59 10° SW 21:49:39 26° SSE 21:51:25 16° ESE
Lacrosse 5 3.7 21:47:05 10° NNW 21:50:51 20° NE 21:54:35 10° E
SL-16 R/B 2.3 21:47:49 10° NNW 21:53:29 68° ENE 21:58:21 14° SSE
Cosmos 1908 3.9 21:50:14 10° NNE 21:53:50 36° E 21:56:19 17° SE
USA 32 4.1 21:50:20 10° S 21:55:34 83° W 22:00:51 10° N
Cosmos 1570 Rocket 4.2 21:51:58 10° N 21:57:11 55° ENE 22:01:16 16° SE
Cosmos 1766 Rocket 4.2 21:54:51 14° SSE 21:58:07 35° E 22:02:04 10° NNE
Atlas Centaur 2 2.1 21:55:23 10° WSW 21:58:41 30° SSW 22:00:26 19° SE
KORONAS-FOTON 4.4 21:56:38 15° SSE 21:59:19 36° E 22:02:49 10° NNE
OAO 1 Rocket 4.4 21:58:54 10° W 22:04:17 83° S 22:09:39 10° E
Cosmos 1242 Rocket 3.0 22:01:39 10° N 22:05:14 45° E 22:07:16 22° SE
SAR-Lupe-1 4.0 22:03:34 17° SSE 22:06:14 76° ENE 22:09:51 10° N
Helios 1B rocket 3.5 22:05:52 10° N 22:09:52 47° WNW 22:13:50 10° SSW
Cosmos 1867 4.2 22:08:31 10° SW 22:13:52 61° WNW 22:19:17 10° NNE
Resurs 01 Rocket 4.3 22:12:06 10° SW 22:14:50 16° W 22:17:34 10° NW
Delta 2 Rocket 4.2 22:09:24 10° SW 22:14:54 53° SSE 22:20:32 10° E
Milstar 3 Cent rocket 3.9 22:09:21 10° W 22:15:58 46° S 22:25:01 19° SE
Helios 1A 3.9 22:12:01 10° S 22:15:58 45° W 22:19:58 10° NNW
USA 234 3.2 22:12:21 10° NE 22:18:51 63° SE 22:25:18 10° SSW
NOAA 11 4.2 22:16:47 20° SSE 22:20:38 69° ENE 22:26:02 10° N
Cosmos 2228 Rocket 4.5 22:17:05 10° NNE 22:20:47 24° ENE 22:22:04 21° ESE
SL-08 RB Rocket 4.5 22:21:53 25° ESE 22:23:48 36° ENE 22:28:00 10° N
MINOTAUR IV R/B 4.5 22:19:19 10° SSW 22:23:51 81° ESE 22:28:23 10° NNE
ERS-1 Rocket 2.9 22:21:46 20° SSE 22:25:20 87° ENE 22:30:23 10° NNW
Terra 3.8 22:24:01 13° E 22:25:27 14° ENE 22:27:57 10° NNE
Cosmos 2227 4.2 22:20:25 10° SSW 22:26:08 88° ESE 22:31:53 10° NNE
Cosmos 1459 Rocket 3.9 22:21:17 10° N 22:27:36 85° E 22:32:18 18° S
H-2A ROCKET BODY 2.9 22:26:42 10° SSW 22:29:49 28° SE 22:38:17 10° E
Sakura Rocket 4.4 22:23:48 10° WSW 22:31:55 51° S 22:35:22 26° ESE
Cosmos 2100 Rocket 4.1 22:27:07 10° N 22:33:27 81° W 22:38:36 16° S
Cosmos 332 Rocket 4.4 22:30:38 10° N 22:35:17 41° ENE 22:37:02 30° ESE
Cosmos 1356 Rocket 4.4 22:31:45 10° SSW 22:35:51 48° W 22:40:01 10° N
MetOp-B 4.1 22:35:14 25° SSE 22:38:25 86° ENE 22:43:48 10° NNW
Cosmos 2123 Rocket 4.0 22:36:04 22° SSE 22:40:10 65° E 22:46:17 10° NNE
Cosmos 2061 Rocket 4.1 22:34:14 10° N 22:40:38 84° W 22:45:13 21° S
H-2A R/B 2.6 22:39:05 30° SE 22:41:14 46° ENE 22:46:24 10° N
YAOGAN 6 4.5 22:38:47 12° SSW 22:41:31 27° W 22:44:41 10° NW
Cosmos 220 Rocket 3.9 22:39:19 27° S 22:41:38 68° ESE 22:46:01 10° NNE
Cosmos 2173 Rocket 4.1 22:37:06 10° N 22:43:16 73° W 22:47:55 19° S
Cosmos 1626 4.1 22:44:37 16° ENE 22:44:37 16° ENE 22:46:11 10° NE
Cosmos 2058 4.2 22:44:53 26° E 22:44:53 26° E 22:48:07 10° NNE
Cosmos 2263 Rocket 2.5 22:46:57 34° SSE 22:48:37 44° ESE 22:53:53 10° NE
Cosmos 1726 1.9 22:47:54 10° N 22:51:35 80° E 22:52:04 64° SSE
Cosmos 1818 4.3 22:47:20 10° NW 22:52:29 44° WSW 22:55:10 25° S
SL-14 R/B 3.1 22:53:30 49° S 22:54:31 86° E 22:58:28 10° N
Cosmos 1300 2.6 22:51:30 10° N 22:55:19 65° E 22:55:37 62° ESE
RESURS DK-1 2.3 22:52:02 10° NNW 22:56:12 72° ENE 22:56:54 57° SE
EO 1 Delta rocket 3.8 22:55:37 44° SSE 22:57:03 71° E 23:01:38 10° N
Cosmos 1328 3.9 23:02:47 46° SSW 23:03:52 74° W 23:07:54 10° N
Meteor 2-2 Rocket 4.3 22:59:21 10° N 23:05:11 89° W 23:07:36 38° S
ERBS 3.7 23:03:32 10° NNW 23:06:28 30° NE 23:06:28 30° NE
Cosmos 1725 Rocket 3.9 23:00:29 10° N 23:06:46 85° E 23:09:19 38° S
Cosmos 1356 4.2 23:11:37 45° NE 23:11:37 45° NE 23:14:14 10° NNE
Cosmos 2151 2.9 23:11:00 66° ESE 23:11:07 67° E 23:15:24 10° NNE
Tiangong 1 3.3 23:11:06 10° NW 23:13:11 18° N 23:13:24 18° NNE
Cosmos 1354 Rocket 4.1 23:16:06 53° ESE 23:16:25 54° ESE 23:21:31 10° NNE
Cosmos 1500 Rocket 3.6 23:18:02 61° SSW 23:18:47 81° W 23:23:16 10° N
Cosmos 1603 3.9 23:15:13 10° NNW 23:20:47 63° WSW 23:22:24 44° SSW
Cosmos 1814 Rocket 4.0 23:18:29 10° NNW 23:23:49 76° WSW 23:24:55 56° S
DMSP B5D2-2 4.0 23:19:27 10° N 23:24:42 83° WNW 23:26:17 46° SSW
Cosmos 371 Rocket 3.2 23:20:23 10° NNW 23:25:12 74° WSW 23:25:49 64° SSW
CZ-4C R/B 3.7 23:28:14 20° ENE 23:28:14 20° ENE 23:30:37 10° NE
ARGOS 4.1 23:24:14 27° SSW 23:26:32 41° W 23:31:38 10° NNW
SPOT 5 3.9 23:26:16 31° SW 23:27:49 39° W 23:32:32 10° NNW
Cosmos 1455 3.8 23:25:12 10° NNE 23:27:33 26° NE 23:27:33 26° NE
CARTOSAT-1 3.6 23:29:27 66° ENE 23:29:27 66° ENE 23:33:32 10° N
Cosmos 841 Rocket 3.3 23:28:09 10° NNW 23:33:25 79° ENE 23:33:53 71° SE
Lacrosse 5 1.8 23:29:12 10° NW 23:34:15 70° SW 23:34:29 69° SSW
Cosmos 1763 Rocket 3.3 23:29:53 10° NNW 23:34:58 77° WSW 23:35:29 69° SSW
Cosmos 1943 3.0 23:30:16 10° NNW 23:35:57 83° ENE 23:36:46 66° SE
SPOT 1/Viking Rocket 4.2 23:35:09 39° SW 23:36:23 48° W 23:41:21 10° NNW
SL-19 R/B 4.1 23:31:32 10° NNE 23:36:57 77° ESE 23:37:45 65° SSE
Abrixas rocket 4.2 23:36:44 10° NW 23:38:41 28° NNW 23:38:41 28° NNW
Landsat 7 4.2 23:47:28 51° WSW 23:47:46 51° W 23:52:25 10° NNW
IGS 5A 3.8 23:48:26 62° NW 23:48:26 62° NW 23:51:59 10° NNW
OAO 1 Rocket 4.3 23:44:39 10° W 23:49:48 80° SW 23:49:48 80° SW
H-2A R/B 2.3 23:51:01 64° N 23:51:01 64° N 23:54:39 10° NNW
Cosmos 1151 Rocket 3.6 23:46:30 10° NNW 23:50:35 51° W 23:50:35 51° W
SME Rocket 4.3 23:52:50 31° NE 23:52:50 31° NE 23:55:57 10° N
